Regional Weather Roundup
Issued by NWS

Home | Current Version | Previous Version | Text Only | Print | Product List | Glossary Off
Versions: 1 2 3 4 5 6 7 8 9 10 11 12 13 14 15 16 17 18 19 20 21 22 23 24 25 26 27 28 29 30 31 32 33 34 35 36 37 38 39 40 41 42 43 44 45 46 47 48 49 50

000
ASUS45 KBOU 311610
RWRCO

WEATHER ROUNDUP FOR COLORADO
NATIONAL WEATHER SERVICE PUEBLO CO
1000 AM MDT FRI JUL 31 2015

NOTE: "FAIR" INDICATES FEW OR NO CLOUDS BELOW 12000 FEET WITH NO
SIGNIFICANT WEATHER AND/OR OBSTRUCTIONS TO VISIBILITY.

COZ001>005-013-030-031-311700-
...NORTHWEST COLORADO...

CITY           SKY/WX    TMP DP  RH WIND       PRES   REMARKS
CRAIG          SUNNY     72  40  31 VRB3      30.38F
HAYDEN         SUNNY     72  41  33 E9        30.40F
MEEKER         SUNNY     71  38  29 CALM      30.40F
MOUNT WERNER   NOT AVBL
STEAMBOAT SPGS FAIR      67  41  38 CALM      30.42F
WALDEN         FAIR      63  37  39 S3        30.52F
$$

COZ006>008-011-311700-
...WEST CENTRAL VALLEYS...

CITY           SKY/WX    TMP DP  RH WIND       PRES   REMARKS
GRAND JUNCTION SUNNY     76  40  27 S7        30.29F
MONTROSE       MOSUNNY   77  44  30 VRB3      30.37F
EAGLE          NOT AVBL
RIFLE          SUNNY     74  36  25 VRB3      30.34F
DELTA          NOT AVBL
NUCLA          FAIR      72  48  43 S3        30.42S
$$

COZ017>023-064>068-311700-
...SOUTHWEST COLORADO...

CITY           SKY/WX    TMP DP  RH WIND       PRES   REMARKS
DURANGO        CLOUDY    68  57  68 E5        30.45S
CORTEZ         MOSUNNY   71  58  63 CALM      30.40S
PAGOSA SPRINGS FAIR      67  51  57 CALM      30.52R
TELLURIDE      CLOUDY    62  46  55 S3        30.61S
WOLF CREEK PAS NOT AVBL
$$

COZ009-010-012-014-032>034-037-058>063-311700-
...CENTRAL COLORADO...

CITY           SKY/WX    TMP DP  RH WIND       PRES   REMARKS
ASPEN          MOSUNNY   69  47  45 N6        30.48F
BUENA VISTA    FAIR      68  48  49 CALM      30.53F
COPPER MTN     MOSUNNY   63  34  34 S13G18    30.81S
BERTHOUD PASS  FAIR      52  41  66 E9G21     30.86F
COTTONWOOD PAS MOSUNNY   66  46  48 E3        30.66F
GUNNISON       MOSUNNY   66  46  48 CALM      30.53S
KREMMLING      SUNNY     68  37  32 CALM      30.50F
LEADVILLE      SUNNY     62  41  46 S6        30.64F
MONARCH PASS   PTSUNNY   52  43  71 E9        30.91S
SALIDA         FAIR      64  50  60 CALM      30.58F
NIWOT RIDGE    NOT AVBL
SUNLIGHT       SUNNY     64  46  52 CALM      30.74F
WILKERSON PASS SUNNY     59  37  44 SE3       30.79F
$$

COZ069>075-311700-
...SAN LUIS VALLEY/SANGRE DE CRISTO MOUNTAINS...

CITY           SKY/WX    TMP DP  RH WIND       PRES   REMARKS
ALAMOSA        PTSUNNY   67  53  61 CALM      30.50F
LA VETA PASS   CLOUDY    57  46  67 MISG      30.69S
SAGUACHE       PTSUNNY   66  52  59 S5        30.53F
$$

COZ035-036-038>040-311700-
...NORTHERN COLORADO FRONT RANGE...

CITY           SKY/WX    TMP DP  RH WIND       PRES   REMARKS
DENVER INTL AP MOSUNNY   78  54  43 VRB6      30.35F
DMNS CITY PARK NOT AVBL
AURORA         MOSUNNY   75  53  46 VRB2      30.38F
FRONT RANGE AP MOSUNNY   75  54  46 CALM      30.37F
ERIE MUNI ARPT FAIR      75  54  47 CALM      30.34F
BOULDER MUN AP FAIR      73  55  53 CALM      30.34F
CENTENNIAL     MOSUNNY   75  50  41 S3        30.38F
BROOMFIELD     MOSUNNY   75  55  50 SE6       30.38S
LOVELAND       SUNNY     75  57  53 NE6       30.33F
LONGMONT       FAIR      79  55  42 S6        30.34F
$$

COZ041-046-047-076>085-087-088-311700-
...PIKES PEAK/PALMER DIVIDE AND SOUTHERN FOOTHILLS...

CITY           SKY/WX    TMP DP  RH WIND       PRES   REMARKS
COLO. SPRINGS  MOSUNNY   75  54  47 SE7       30.42S
A. F. ACADEMY  SUNNY     75  49  40 S5        30.43F
ELLICOTT       FAIR     N/A N/A N/A SE7       30.41S
FALCON         FAIR      74  49  41 SE7       30.47S
FORT CARSON    SUNNY     74  56  54 VRB5      30.39S
LIMON          SUNNY     75  61  61 SE9       30.38S
MONUMENT HILL  SUNNY     73  46  38 E5        30.47S
TRINIDAD       SUNNY     76  57  51 N9        30.38F
$$

COZ042>045-048>051-090-091-311700-
...NORTHEAST COLORADO...

CITY           SKY/WX    TMP DP  RH WIND       PRES   REMARKS
GREELEY ARPT   SUNNY     72  59  64 CALM      30.33F
AKRON          SUNNY     82  53  36 SE6       30.31F
BURLINGTON     SUNNY     77  66  68 S12       30.32F
WRAY           FAIR      82  62  50 S6        30.27F
STERLING       FAIR      81  59  47 CALM      30.26F
HOLYOKE        NOT AVBL
FORT MORGAN    FAIR      76  59  55 S5        30.32F
$$

COZ086-089-092>099-311700-
...SOUTHEAST COLORADO...

CITY           SKY/WX    TMP DP  RH WIND       PRES   REMARKS
PUEBLO         SUNNY     81  58  45 NE3       30.32F
LA JUNTA       MOSUNNY   77  63  61 E12       30.30F
LAMAR          MOSUNNY   78  63  59 S10G18    30.27F
SPRINGFIELD      N/A     70  63  78 SW13      30.33S
$$




USA.gov is the U.S. government's official web portal to all federal, state and local government web resources and services.